TimeCDT,TemperatureF,Dew PointF,Humidity,Sea Level PressureIn,VisibilityMPH,Wind Direction,Wind SpeedMPH,Gust SpeedMPH,PrecipitationIn,Events,Conditions,WindDirDegrees,DateUTC
12:53 AM,73.0,59.0,61,30.12,10.0,Calm,Calm,-,N/A,,Overcast,0,2011-10-09 05:53:00
1:53 AM,69.1,60.1,73,30.13,10.0,Calm,Calm,-,N/A,,Mostly Cloudy,0,2011-10-09 06:53:00
2:53 AM,72.0,55.9,57,30.14,10.0,Calm,Calm,-,N/A,,Overcast,0,2011-10-09 07:53:00
3:53 AM,71.1,54.0,55,30.14,10.0,South,11.5,18.4,N/A,,Overcast,190,2011-10-09 08:53:00
4:53 AM,70.0,53.1,55,30.16,10.0,South,3.5,-,N/A,,Mostly Cloudy,180,2011-10-09 09:53:00
5:53 AM,69.8,53.6,56,30.18,10.0,SSE,5.8,-,N/A,,Partly Cloudy,160,2011-10-09 10:53:00
6:53 AM,66.9,52.0,59,30.18,10.0,South,6.9,-,N/A,,Mostly Cloudy,170,2011-10-09 11:53:00
7:53 AM,64.9,51.1,61,30.19,10.0,SSE,5.8,-,N/A,,Mostly Cloudy,150,2011-10-09 12:53:00
8:53 AM,66.9,51.1,57,30.20,10.0,South,6.9,-,N/A,,Mostly Cloudy,170,2011-10-09 13:53:00
9:53 AM,68.0,51.1,55,30.22,10.0,South,8.1,-,N/A,,Scattered Clouds,170,2011-10-09 14:53:00
10:53 AM,73.0,52.0,48,30.21,10.0,SE,4.6,-,N/A,,Scattered Clouds,140,2011-10-09 15:53:00
11:53 AM,75.9,53.1,45,30.19,10.0,ESE,9.2,-,N/A,,Scattered Clouds,120,2011-10-09 16:53:00
12:53 PM,79.0,52.0,39,30.17,10.0,SE,5.8,-,N/A,,Scattered Clouds,140,2011-10-09 17:53:00
1:53 PM,82.9,48.9,31,30.14,10.0,SSE,15.0,-,N/A,,Scattered Clouds,150,2011-10-09 18:53:00
2:53 PM,82.9,45.0,26,30.12,10.0,South,10.4,21.9,N/A,,Mostly Cloudy,180,2011-10-09 19:53:00
3:53 PM,82.0,45.0,27,30.11,10.0,SSW,9.2,19.6,N/A,,Scattered Clouds,200,2011-10-09 20:53:00
4:53 PM,82.0,48.0,30,30.11,10.0,SSE,10.4,18.4,N/A,,Scattered Clouds,150,2011-10-09 21:53:00
5:53 PM,80.1,48.9,34,30.11,10.0,SSE,8.1,-,N/A,,Scattered Clouds,160,2011-10-09 22:53:00
6:53 PM,75.9,48.9,38,30.12,10.0,SE,8.1,-,N/A,,Scattered Clouds,140,2011-10-09 23:53:00
7:53 PM,75.0,48.9,40,30.12,10.0,SSE,6.9,-,N/A,,Partly Cloudy,150,2011-10-10 00:53:00
8:53 PM,71.1,50.0,47,30.12,10.0,SE,8.1,-,N/A,,Partly Cloudy,140,2011-10-10 01:53:00
9:53 PM,70.0,50.0,49,30.14,10.0,SE,8.1,-,N/A,,Partly Cloudy,140,2011-10-10 02:53:00
10:53 PM,68.0,51.1,55,30.13,10.0,SE,8.1,-,N/A,,Clear,130,2011-10-10 03:53:00
11:53 PM,66.9,51.1,57,30.13,10.0,SE,9.2,-,N/A,,Clear,140,2011-10-10 04:53:00